User: anonymous   Login
Location: Caltech
(34.1382°N, 118.1253°W)
Time: 10:49:16
(UTC-07:00)
Language:

Iridium 14 - Orbit

View from above orbital plane
View from above orbital plane
View from above satellite
View from above satellite

Ground track
Ground track

The orbit data is extracted from the following two-line orbital elements,

1 25777U 99032A   15187.46364670  .00000108  00000-0  31548-4 0  9993
2 25777 086.3982 161.4573 0002356 092.4693 021.1969 14.34219310852665
Epoch (UTC): 06 July 2015 11:07:39
Eccentricity: 0.0002356
inclination: 86.3982°
perigee height: 776 km
apogee height: 779 km
right ascension of ascending node: 161.4573°
argument of perigee: 92.4693°
revolutions per day: 14.34219310
mean anomaly at epoch: 21.1969°
orbit number at epoch: 85266

The dashed part of the orbit path shows where the satellite is in the earth's shadow,  

DLR